,,PA_Meas_PMT16A,,PR_Meas_QMR101_102,,RH_Meas_QMH101,,SR_Meas_QMS101,,TA_Meas_QMH101,,GenWind,,GenWind,
time,status,PA,status,PR,status,RH,status,SR,status,TA,status,DirAvg,status,SpdAvg,
2010-11-02, 00:00:04,VALID,915.355,VALID,0,VALID,96.2533,VALID,0,VALID,18.9229,VALID,25,VALID,2.45156,
2010-11-02, 00:01:04,VALID,915.335,VALID,0,VALID,96.2914,VALID,0,VALID,18.9229,VALID,36,VALID,2.0668,
2010-11-02, 00:02:04,VALID,915.281,VALID,0,VALID,96.2609,VALID,0,VALID,18.9229,VALID,35,VALID,2.21719,
2010-11-02, 00:03:04,VALID,915.325,VALID,0,VALID,96.3219,VALID,0,VALID,18.9229,VALID,321,VALID,0.696094,
2010-11-02, 00:04:04,VALID,915.26,VALID,0,VALID,96.3142,VALID,0,VALID,18.9229,VALID,14,VALID,2.10352,
2010-11-02, 00:05:04,VALID,915.226,VALID,0,VALID,96.2685,VALID,0,VALID,18.9034,VALID,6,VALID,1.41484,
2010-11-02, 00:06:04,VALID,915.238,VALID,0,VALID,96.238,VALID,0,VALID,18.9243,VALID,28,VALID,1.09805,
2010-11-02, 00:07:04,VALID,915.19,VALID,0,VALID,96.2228,VALID,0,VALID,18.9438,VALID,329,VALID,2.03867,
2010-11-02, 00:08:04,VALID,915.169,VALID,0,VALID,96.0245,VALID,0,VALID,18.9243,VALID,19,VALID,2.30391,
2010-11-02, 00:09:04,VALID,915.143,VALID,0,VALID,95.9941,VALID,0,VALID,18.9229,VALID,40,VALID,2.34102,
2010-11-02, 00:10:04,VALID,915.121,VALID,0,VALID,95.9788,VALID,0,VALID,18.9229,VALID,21,VALID,1.61172,
2010-11-02, 00:11:04,VALID,915.102,VALID,0,VALID,95.9559,VALID,0,VALID,18.9438,VALID,7,VALID,1.83789,
2010-11-02, 00:12:04,VALID,915.087,VALID,0,VALID,96.0017,VALID,0,VALID,18.9243,VALID,9,VALID,1.88203,
2010-11-02, 00:13:04,VALID,915.13,VALID,0,VALID,96.0474,VALID,0,VALID,18.9019,VALID,17,VALID,1.83125,
2010-11-02, 00:14:04,VALID,915.107,VALID,0,VALID,96.1389,VALID,0,VALID,18.9019,VALID,23,VALID,1.95469,
2010-11-02, 00:15:04,VALID,915.102,VALID,0,VALID,96.1465,VALID,0,VALID,18.9034,VALID,26,VALID,1.67656,
2010-11-02, 00:16:04,VALID,915.089,VALID,0,VALID,96.2228,VALID,0,VALID,18.9019,VALID,25,VALID,2.04375,
2010-11-02, 00:17:04,VALID,915.049,VALID,0,VALID,96.2837,VALID,0,VALID,18.9229,VALID,26,VALID,2.24062,
2010-11-02, 00:18:04,VALID,915.018,VALID,0,VALID,96.3371,VALID,0,VALID,18.9019,VALID,27,VALID,2.45781,
2010-11-02, 00:19:04,VALID,914.967,VALID,0,VALID,96.3752,VALID,0,VALID,18.8824,VALID,17,VALID,2.03437,
2010-11-02, 00:20:04,VALID,914.961,VALID,0,VALID,96.4591,VALID,0,VALID,18.8629,VALID,20,VALID,1.87148,
2010-11-02, 00:21:04,VALID,914.97,VALID,0,VALID,96.5201,VALID,0,VALID,18.8839,VALID,26,VALID,1.36133,
2010-11-02, 00:22:04,VALID,914.919,VALID,0,VALID,96.5811,VALID,0,VALID,18.9019,VALID,28,VALID,1.81211,
2010-11-02, 00:23:04,VALID,914.901,VALID,0,VALID,96.6039,VALID,0,VALID,18.9034,VALID,29,VALID,2.17656,
2010-11-02, 00:24:04,VALID,914.89,VALID,0,VALID,96.6344,VALID,0.107441,VALID,18.8629,VALID,30,VALID,2.28203,
2010-11-02, 00:25:04,VALID,914.853,VALID,0,VALID,96.6878,VALID,0.107441,VALID,18.9034,VALID,26,VALID,1.63594,
2010-11-02, 00:26:04,VALID,914.868,VALID,0,VALID,96.7107,VALID,0.107441,VALID,18.9019,VALID,26,VALID,1.65508,
2010-11-02, 00:27:04,VALID,914.854,VALID,0,VALID,96.7183,VALID,0,VALID,18.9034,VALID,26,VALID,2.10039,
2010-11-02, 00:28:04,VALID,914.849,VALID,0,VALID,96.7183,VALID,0,VALID,18.9034,VALID,29,VALID,0.856641,
2010-11-02, 00:29:04,VALID,914.88,VALID,0,VALID,96.764,VALID,0,VALID,18.8839,VALID,22,VALID,1.67695,
2010-11-02, 00:30:04,VALID,914.881,VALID,0,VALID,96.7945,VALID,0,VALID,18.9229,VALID,22,VALID,1.38437,
2010-11-02, 00:31:04,VALID,914.849,VALID,0,VALID,96.8174,VALID,0,VALID,18.9229,VALID,22,VALID,1.67188,
2010-11-02, 00:32:04,VALID,914.823,VALID,0,VALID,96.8403,VALID,0.107441,VALID,18.9214,VALID,38,VALID,2.21914,
2010-11-02, 00:33:04,VALID,914.826,VALID,0,VALID,96.8555,VALID,0,VALID,18.8824,VALID,25,VALID,2.27969,
2010-11-02, 00:34:04,VALID,914.826,VALID,0,VALID,96.8784,VALID,0,VALID,18.9214,VALID,31,VALID,2.23242,
2010-11-02, 00:35:04,VALID,914.822,VALID,0,VALID,96.886,VALID,0,VALID,18.9214,VALID,26,VALID,1.74609,
2010-11-02, 00:36:04,VALID,914.795,VALID,0,VALID,96.9241,VALID,0.107441,VALID,18.9214,VALID,28,VALID,2.24922,
2010-11-02, 00:37:04,VALID,914.824,VALID,0,VALID,96.9165,VALID,0.107441,VALID,18.9619,VALID,23,VALID,2.40703,
2010-11-02, 00:38:04,VALID,914.785,VALID,0,VALID,96.9012,VALID,0,VALID,18.9229,VALID,28,VALID,1.48477,
2010-11-02, 00:39:04,VALID,914.746,VALID,0,VALID,96.9241,VALID,0.107441,VALID,18.9424,VALID,28,VALID,0.356641,
2010-11-02, 00:40:04,VALID,914.723,VALID,0,VALID,96.9165,VALID,0,VALID,18.9799,VALID,28,VALID,0.753906,
2010-11-02, 00:41:04,VALID,914.763,VALID,0,VALID,96.9165,VALID,0.107441,VALID,18.9409,VALID,28,VALID,0.845312,
2010-11-02, 00:42:04,VALID,914.728,VALID,0,VALID,96.9317,VALID,0,VALID,18.9604,VALID,27,VALID,0.848047,
2010-11-02, 00:43:04,VALID,914.745,VALID,0,VALID,96.9317,VALID,0,VALID,18.9409,VALID,28,VALID,0.567187,
2010-11-02, 00:44:04,VALID,914.69,VALID,0,VALID,96.9165,VALID,0,VALID,18.9814,VALID,28,VALID,0.976563,
2010-11-02, 00:45:04,VALID,914.7,VALID,0,VALID,96.9089,VALID,0,VALID,18.9814,VALID,49,VALID,0.955078,
2010-11-02, 00:46:04,VALID,914.673,VALID,0.2,VALID,96.9012,VALID,0,VALID,18.9604,VALID,49,VALID,0.761719,
2010-11-02, 00:47:04,VALID,914.678,VALID,0,VALID,96.9012,VALID,0,VALID,19.0008,VALID,49,VALID,0.576953,
2010-11-02, 00:48:04,VALID,914.629,VALID,0,VALID,96.9089,VALID,0,VALID,18.9619,VALID,49,VALID,0.483203,
2010-11-02, 00:49:04,VALID,914.615,VALID,0,VALID,96.9012,VALID,0,VALID,18.9619,VALID,85,VALID,1.13867,
2010-11-02, 00:50:04,VALID,914.585,VALID,0.2,VALID,96.9012,VALID,0,VALID,18.9814,VALID,85,VALID,0.913672,
2010-11-02, 00:51:04,VALID,914.596,VALID,0,VALID,96.9241,VALID,0,VALID,18.9619,VALID,180,VALID,0.320313,
2010-11-02, 00:52:04,VALID,914.601,VALID,0,VALID,96.9241,VALID,0,VALID,18.9814,VALID,76,VALID,1.43359,
2010-11-02, 00:53:04,VALID,914.605,VALID,0.2,VALID,96.9241,VALID,0,VALID,19.0008,VALID,76,VALID,0.0277344,
2010-11-02, 00:54:04,VALID,914.606,VALID,0,VALID,96.8784,VALID,0,VALID,18.9814,VALID,54,VALID,1.3793,
2010-11-02, 00:55:04,VALID,914.665,VALID,0,VALID,96.9165,VALID,0,VALID,19.0203,VALID,37,VALID,0.425,
2010-11-02, 00:56:04,VALID,914.649,VALID,0,VALID,96.886,VALID,0,VALID,19.0398,VALID,37,VALID,0.329297,
2010-11-02, 00:57:04,VALID,914.602,VALID,0,VALID,96.8784,VALID,0,VALID,18.9814,VALID,37,VALID,0.494531,
2010-11-02, 00:58:04,VALID,914.654,VALID,0,VALID,96.9394,VALID,0,VALID,19.0008,VALID,37,VALID,0.298047,
2010-11-02, 00:59:04,VALID,914.596,VALID,0,VALID,96.9089,VALID,0,VALID,19.0203,VALID,37,VALID,1.00273,
2010-11-02, 01:00:04,VALID,914.639,VALID,0,VALID,96.9241,VALID,0,VALID,19.0008,VALID,41,VALID,0.965234,
2010-11-02, 01:01:04,VALID,914.601,VALID,0,VALID,96.9394,VALID,0,VALID,18.9994,VALID,354,VALID,0.703125,
2010-11-02, 01:02:04,VALID,914.683,VALID,0,VALID,96.9622,VALID,0,VALID,19.0189,VALID,255,VALID,0.654688,
2010-11-02, 01:03:04,VALID,914.734,VALID,0,VALID,96.9394,VALID,0,VALID,19.0398,VALID,255,VALID,0.3875,
2010-11-02, 01:04:04,VALID,914.698,VALID,0,VALID,96.9317,VALID,0,VALID,19.0398,VALID,255,VALID,0.38125,
2010-11-02, 01:05:04,VALID,914.679,VALID,0,VALID,96.947,VALID,0,VALID,19.0398,VALID,112,VALID,1.26484,
2010-11-02, 01:06:04,VALID,914.651,VALID,0,VALID,96.9622,VALID,0,VALID,19.0788,VALID,61,VALID,1.24922,
2010-11-02, 01:07:04,VALID,914.529,VALID,0,VALID,96.947,VALID,0,VALID,19.0593,VALID,56,VALID,0.994531,
2010-11-02, 01:08:04,VALID,914.445,VALID,0,VALID,96.947,VALID,0,VALID,19.0398,VALID,36,VALID,1.14648,
2010-11-02, 01:09:04,VALID,914.441,VALID,0.2,VALID,96.9622,VALID,0,VALID,19.0593,VALID,28,VALID,1.61836,
2010-11-02, 01:10:04,VALID,914.454,VALID,0,VALID,96.9622,VALID,0,VALID,19.0593,VALID,49,VALID,1.01406,
2010-11-02, 01:11:04,VALID,914.531,VALID,0,VALID,96.9775,VALID,0,VALID,19.0593,VALID,38,VALID,0.423047,
2010-11-02, 01:12:04,VALID,914.501,VALID,0,VALID,96.947,VALID,0,VALID,19.0398,VALID,275,VALID,0.66875,
2010-11-02, 01:13:04,VALID,914.51,VALID,0,VALID,96.9394,VALID,0,VALID,19.0398,VALID,336,VALID,0.566016,
2010-11-02, 01:14:04,VALID,914.519,VALID,0,VALID,96.9698,VALID,0,VALID,19.0593,VALID,336,VALID,0.851953,
2010-11-02, 01:15:04,VALID,914.519,VALID,0,VALID,96.947,VALID,0,VALID,19.0398,VALID,336,VALID,0.698438,
2010-11-02, 01:16:04,VALID,914.578,VALID,0,VALID,96.9775,VALID,0,VALID,19.0398,VALID,336,VALID,0.0960938,
2010-11-02, 01:17:04,VALID,914.592,VALID,0,VALID,96.9546,VALID,0,VALID,19.0593,VALID,336,VALID,0.951563,
2010-11-02, 01:18:04,VALID,914.637,VALID,0,VALID,96.9546,VALID,0,VALID,19.0593,VALID,336,VALID,0.260938,
2010-11-02, 01:19:04,VALID,914.589,VALID,0,VALID,96.9775,VALID,0,VALID,19.0593,VALID,336,VALID,0.297656,
2010-11-02, 01:20:04,VALID,914.616,VALID,0,VALID,96.9317,VALID,0,VALID,19.0203,VALID,43,VALID,1.33633,
2010-11-02, 01:21:04,VALID,914.563,VALID,0,VALID,96.9546,VALID,0,VALID,19.0593,VALID,43,VALID,1.71914,
2010-11-02, 01:22:04,VALID,914.605,VALID,0,VALID,96.9394,VALID,0,VALID,19.0008,VALID,29,VALID,0.649609,
2010-11-02, 01:23:04,VALID,914.608,VALID,0,VALID,96.9546,VALID,0,VALID,19.0384,VALID,29,VALID,0.417969,
2010-11-02, 01:24:04,VALID,914.623,VALID,0,VALID,96.9546,VALID,0,VALID,19.0384,VALID,29,VALID,0.458984,
2010-11-02, 01:25:04,VALID,914.63,VALID,0,VALID,96.9775,VALID,0,VALID,19.0398,VALID,341,VALID,1.3125,
2010-11-02, 01:26:04,VALID,914.605,VALID,0,VALID,96.9851,VALID,0,VALID,19.0398,VALID,196,VALID,0.809375,
2010-11-02, 01:27:04,VALID,914.6,VALID,0,VALID,96.9698,VALID,0,VALID,19.0788,VALID,196,VALID,0.341016,
2010-11-02, 01:28:04,VALID,914.623,VALID,0,VALID,96.9698,VALID,0,VALID,19.0579,VALID,196,VALID,0.585547,
2010-11-02, 01:29:04,VALID,914.667,VALID,0.2,VALID,96.9622,VALID,0,VALID,19.0788,VALID,196,VALID,0.561328,
2010-11-02, 01:30:04,VALID,914.636,VALID,0,VALID,96.9622,VALID,0,VALID,19.0398,VALID,69,VALID,0.953125,
2010-11-02, 01:31:04,VALID,914.516,VALID,0.4,VALID,96.947,VALID,0,VALID,19.0203,VALID,326,VALID,1.26016,
2010-11-02, 01:32:04,VALID,914.589,VALID,0,VALID,96.9394,VALID,0,VALID,19.0384,VALID,258,VALID,2.13867,
2010-11-02, 01:33:04,VALID,914.618,VALID,0,VALID,96.947,VALID,0,VALID,19.0008,VALID,17,VALID,0.948047,
2010-11-02, 01:34:04,VALID,914.566,VALID,0.2,VALID,96.9394,VALID,0,VALID,19.0398,VALID,50,VALID,2.03125,
2010-11-02, 01:35:04,VALID,914.581,VALID,0.2,VALID,96.9927,VALID,0,VALID,19.0593,VALID,30,VALID,0.467187,
2010-11-02, 01:36:04,VALID,914.555,VALID,0.2,VALID,96.9622,VALID,0,VALID,19.0398,VALID,9,VALID,1.67344,
2010-11-02, 01:37:04,VALID,914.567,VALID,0.2,VALID,96.9775,VALID,0,VALID,19.0384,VALID,220,VALID,1.54492,
2010-11-02, 01:38:04,VALID,914.526,VALID,0.2,VALID,96.9927,VALID,0,VALID,19.0203,VALID,17,VALID,2.72813,
2010-11-02, 01:39:04,VALID,914.488,VALID,0.2,VALID,96.9241,VALID,0,VALID,19.0398,VALID,188,VALID,1.26055,
2010-11-02, 01:40:04,VALID,914.582,VALID,0.4,VALID,96.9622,VALID,0,VALID,18.9814,VALID,353,VALID,1.10938,
2010-11-02, 01:41:04,VALID,914.559,VALID,0.2,VALID,96.947,VALID,0,VALID,18.9814,VALID,34,VALID,1.79961,
2010-11-02, 01:42:04,VALID,914.578,VALID,0.2,VALID,96.9851,VALID,0,VALID,19.0203,VALID,48,VALID,1.56797,
2010-11-02, 01:43:04,VALID,914.523,VALID,0.2,VALID,96.9851,VALID,0,VALID,19.0203,VALID,47,VALID,0.697266,
2010-11-02, 01:44:04,VALID,914.552,VALID,0,VALID,96.9622,VALID,0,VALID,19.0203,VALID,46,VALID,1.4,
2010-11-02, 01:45:04,VALID,914.517,VALID,0.2,VALID,96.9775,VALID,0,VALID,19.0203,VALID,35,VALID,2.75234,
2010-11-02, 01:46:04,VALID,914.492,VALID,0,VALID,97.0003,VALID,0,VALID,19.0203,VALID,30,VALID,1.49531,
2010-11-02, 01:47:04,VALID,914.447,VALID,0,VALID,96.9546,VALID,0,VALID,18.9994,VALID,34,VALID,1.9293,
2010-11-02, 01:48:04,VALID,914.352,VALID,0.2,VALID,96.9927,VALID,0,VALID,19.0203,VALID,89,VALID,1.25391,
2010-11-02, 01:49:04,VALID,914.366,VALID,0,VALID,96.9775,VALID,0,VALID,19.0008,VALID,287,VALID,2.2207,
2010-11-02, 01:50:04,VALID,914.264,VALID,0.2,VALID,96.9546,VALID,0,VALID,19.0384,VALID,253,VALID,3.68828,
2010-11-02, 01:51:04,VALID,914.21,VALID,0,VALID,96.9851,VALID,0,VALID,19.0203,VALID,3,VALID,1.39844,
2010-11-02, 01:52:04,VALID,914.233,VALID,0,VALID,96.9546,VALID,0,VALID,19.0593,VALID,327,VALID,2.25938,
2010-11-02, 01:53:04,VALID,914.264,VALID,0,VALID,96.9775,VALID,0,VALID,19.0189,VALID,70,VALID,1.59297,
2010-11-02, 01:54:04,VALID,914.276,VALID,0,VALID,96.9775,VALID,0,VALID,19.0593,VALID,31,VALID,1.15078,
2010-11-02, 01:55:04,VALID,914.233,VALID,0.2,VALID,96.9775,VALID,0,VALID,19.0983,VALID,288,VALID,1.51953,
2010-11-02, 01:56:04,VALID,914.231,VALID,0,VALID,96.9546,VALID,0,VALID,19.0774,VALID,222,VALID,1.00312,
2010-11-02, 01:57:04,VALID,914.152,VALID,0,VALID,96.9775,VALID,0,VALID,19.0969,VALID,319,VALID,1.24219,
2010-11-02, 01:58:04,VALID,914.144,VALID,0,VALID,96.9927,VALID,0,VALID,19.0774,VALID,255,VALID,4.39727,
2010-11-02, 01:59:04,VALID,914.224,VALID,0,VALID,96.9851,VALID,0,VALID,19.0579,VALID,230,VALID,1.80195,
2010-11-02, 02:00:04,VALID,914.233,VALID,0,VALID,97.008,VALID,0,VALID,19.1178,VALID,253,VALID,2.73203,
2010-11-02, 02:01:04,VALID,913.872,VALID,0,VALID,97.0308,VALID,0,VALID,19.1178,VALID,25,VALID,3.60508,
2010-11-02, 02:02:04,VALID,914.179,VALID,0,VALID,96.9851,VALID,0,VALID,19.1164,VALID,253,VALID,1.7918,
2010-11-02, 02:03:04,VALID,914.159,VALID,0,VALID,97.0232,VALID,0,VALID,19.1554,VALID,47,VALID,1.44727,
2010-11-02, 02:04:04,VALID,914.242,VALID,0,VALID,97.0156,VALID,0.107441,VALID,19.1554,VALID,253,VALID,1.50234,
2010-11-02, 02:05:04,VALID,914.119,VALID,0,VALID,97.0385,VALID,0,VALID,19.1763,VALID,351,VALID,1.23477,
2010-11-02, 02:06:04,VALID,914.098,VALID,0,VALID,97.0461,VALID,0,VALID,19.1554,VALID,260,VALID,1.55234,
2010-11-02, 02:07:04,VALID,914.151,VALID,0,VALID,97.0461,VALID,0,VALID,19.1749,VALID,178,VALID,0.826563,
2010-11-02, 02:08:04,VALID,914.185,VALID,0,VALID,97.0232,VALID,0,VALID,19.1568,VALID,147,VALID,1.18906,
2010-11-02, 02:09:04,VALID,914.118,VALID,0,VALID,97.069,VALID,0,VALID,19.1944,VALID,6,VALID,2.03516,
2010-11-02, 02:10:04,VALID,914.121,VALID,0,VALID,97.0385,VALID,0,VALID,19.1958,VALID,202,VALID,1.34687,
2010-11-02, 02:11:04,VALID,914.098,VALID,0,VALID,97.0613,VALID,0,VALID,19.1359,VALID,214,VALID,0.656641,
2010-11-02, 02:12:04,VALID,914.068,VALID,0,VALID,97.1071,VALID,0,VALID,19.1944,VALID,34,VALID,2.01367,
2010-11-02, 02:13:04,VALID,914.098,VALID,0,VALID,97.0461,VALID,0,VALID,19.1749,VALID,354,VALID,0.614844,
2010-11-02, 02:14:04,VALID,914.02,VALID,0,VALID,97.0537,VALID,0,VALID,19.1763,VALID,308,VALID,1.13906,
2010-11-02, 02:15:04,VALID,913.999,VALID,0,VALID,97.0766,VALID,0,VALID,19.1373,VALID,40,VALID,1.4707,
2010-11-02, 02:16:04,VALID,913.951,VALID,0,VALID,97.0232,VALID,0,VALID,19.1178,VALID,235,VALID,2.73516,
2010-11-02, 02:17:04,VALID,914.011,VALID,0,VALID,97.0308,VALID,0,VALID,19.0969,VALID,247,VALID,0.897656,
2010-11-02, 02:18:04,VALID,913.898,VALID,0,VALID,97.0537,VALID,0,VALID,19.0579,VALID,88,VALID,1.27383,
2010-11-02, 02:19:04,VALID,913.898,VALID,0,VALID,97.0461,VALID,0,VALID,19.1568,VALID,164,VALID,0.778516,
2010-11-02, 02:20:04,VALID,913.809,VALID,0,VALID,97.0613,VALID,0,VALID,19.0774,VALID,43,VALID,2.49336,
2010-11-02, 02:21:04,VALID,913.791,VALID,0,VALID,97.0613,VALID,0,VALID,19.0983,VALID,263,VALID,0.656641,
2010-11-02, 02:22:04,VALID,913.72,VALID,0,VALID,97.0842,VALID,0,VALID,19.0969,VALID,92,VALID,0.877344,
2010-11-02, 02:23:04,VALID,913.677,VALID,0,VALID,97.1147,VALID,0,VALID,19.1178,VALID,44,VALID,1.2543,
2010-11-02, 02:24:04,VALID,913.623,VALID,0,VALID,97.1223,VALID,0,VALID,19.0969,VALID,25,VALID,1.68047,
2010-11-02, 02:25:04,VALID,913.674,VALID,0,VALID,97.1223,VALID,0,VALID,19.1568,VALID,209,VALID,0.635547,
2010-11-02, 02:26:04,VALID,913.681,VALID,0,VALID,97.1147,VALID,0.107441,VALID,19.1554,VALID,210,VALID,0.516016,
2010-11-02, 02:27:04,VALID,913.632,VALID,0,VALID,97.1376,VALID,0,VALID,19.1373,VALID,210,VALID,0.512109,
2010-11-02, 02:28:04,VALID,913.598,VALID,0,VALID,97.1452,VALID,0,VALID,19.1554,VALID,74,VALID,0.75625,
2010-11-02, 02:29:04,VALID,913.618,VALID,0,VALID,97.1376,VALID,0,VALID,19.0774,VALID,234,VALID,1.69219,
2010-11-02, 02:30:04,VALID,913.605,VALID,0,VALID,97.1604,VALID,0.107441,VALID,19.1763,VALID,59,VALID,1.37266,
2010-11-02, 02:31:04,VALID,913.658,VALID,0,VALID,97.1757,VALID,0,VALID,19.1373,VALID,36,VALID,2.00391,
2010-11-02, 02:32:04,VALID,913.677,VALID,0,VALID,97.1681,VALID,0,VALID,19.1554,VALID,52,VALID,0.795313,
2010-11-02, 02:33:04,VALID,913.632,VALID,0,VALID,97.1299,VALID,0,VALID,19.1178,VALID,233,VALID,1.86016,
2010-11-02, 02:34:04,VALID,913.6,VALID,0,VALID,97.1452,VALID,0,VALID,19.1164,VALID,51,VALID,3.08477,
2010-11-02, 02:35:04,VALID,913.597,VALID,0,VALID,97.1604,VALID,0,VALID,19.1373,VALID,157,VALID,0.749609,
2010-11-02, 02:36:04,VALID,913.609,VALID,0,VALID,97.1833,VALID,0,VALID,19.1763,VALID,158,VALID,0.551562,
2010-11-02, 02:37:04,VALID,913.65,VALID,0,VALID,97.1604,VALID,0,VALID,19.1373,VALID,153,VALID,0.429297,
2010-11-02, 02:38:04,VALID,913.7,VALID,0,VALID,97.1909,VALID,0,VALID,19.1373,VALID,7,VALID,1.91367,
2010-11-02, 02:39:04,VALID,913.624,VALID,0,VALID,97.1681,VALID,0,VALID,19.1373,VALID,57,VALID,0.789844,
2010-11-02, 02:40:04,VALID,913.627,VALID,0,VALID,97.1757,VALID,0,VALID,19.1373,VALID,51,VALID,1.1832,
2010-11-02, 02:41:04,VALID,913.617,VALID,0.2,VALID,97.1833,VALID,0,VALID,19.1373,VALID,256,VALID,1.84492,
2010-11-02, 02:42:04,VALID,913.613,VALID,0,VALID,97.1833,VALID,0,VALID,19.0983,VALID,310,VALID,1.62148,
2010-11-02, 02:43:04,VALID,913.6,VALID,0,VALID,97.1757,VALID,0,VALID,19.1164,VALID,54,VALID,1.01406,
2010-11-02, 02:44:04,VALID,913.565,VALID,0,VALID,97.1681,VALID,0,VALID,19.1359,VALID,49,VALID,1.65117,
2010-11-02, 02:45:04,VALID,913.479,VALID,0,VALID,97.1909,VALID,0,VALID,19.1373,VALID,43,VALID,2.35781,
2010-11-02, 02:46:04,VALID,913.533,VALID,0,VALID,97.1833,VALID,0,VALID,19.1164,VALID,202,VALID,1.32383,
2010-11-02, 02:47:04,VALID,913.457,VALID,0.2,VALID,97.1833,VALID,0.107441,VALID,19.1178,VALID,36,VALID,2.475,
2010-11-02, 02:48:04,VALID,913.527,VALID,0,VALID,97.1757,VALID,0,VALID,19.1178,VALID,53,VALID,1.50156,
2010-11-02, 02:49:04,VALID,913.501,VALID,0,VALID,97.1833,VALID,0,VALID,19.0969,VALID,89,VALID,0.760547,
2010-11-02, 02:50:04,VALID,913.463,VALID,0,VALID,97.1909,VALID,0,VALID,19.0969,VALID,91,VALID,0.63125,
2010-11-02, 02:51:04,VALID,913.422,VALID,0,VALID,97.1757,VALID,0,VALID,19.0983,VALID,131,VALID,0.771875,
2010-11-02, 02:52:04,VALID,913.416,VALID,0,VALID,97.1986,VALID,0,VALID,19.0983,VALID,87,VALID,0.850781,
2010-11-02, 02:53:04,VALID,913.422,VALID,0,VALID,97.1604,VALID,0,VALID,19.0788,VALID,252,VALID,1.21328,
2010-11-02, 02:54:04,VALID,913.31,VALID,0,VALID,97.1986,VALID,0,VALID,19.0593,VALID,31,VALID,2.24219,
2010-11-02, 02:55:04,VALID,913.377,VALID,0,VALID,97.2062,VALID,0,VALID,19.0788,VALID,69,VALID,0.465625,
2010-11-02, 02:56:04,VALID,913.339,VALID,0,VALID,97.229,VALID,0,VALID,19.0788,VALID,18,VALID,2.32383,
2010-11-02, 02:57:04,VALID,913.388,VALID,0,VALID,97.1757,VALID,0,VALID,19.0593,VALID,263,VALID,2.46445,
2010-11-02, 02:58:04,VALID,913.335,VALID,0,VALID,97.2138,VALID,0,VALID,19.0593,VALID,27,VALID,1.83555,
2010-11-02, 02:59:04,VALID,913.349,VALID,0,VALID,97.2214,VALID,0,VALID,19.0593,VALID,235,VALID,0.623047,
2010-11-02, 03:00:04,VALID,913.343,VALID,0,VALID,97.2062,VALID,0,VALID,19.0189,VALID,221,VALID,1.02734,
2010-11-02, 03:01:04,VALID,913.272,VALID,0,VALID,97.1986,VALID,0,VALID,19.0398,VALID,32,VALID,2.02187,
2010-11-02, 03:02:04,VALID,913.31,VALID,0,VALID,97.229,VALID,0,VALID,19.0579,VALID,144,VALID,1.0043,
2010-11-02, 03:03:04,VALID,913.274,VALID,0,VALID,97.229,VALID,0,VALID,19.0593,VALID,54,VALID,2.4957,
2010-11-02, 03:04:04,VALID,913.24,VALID,0,VALID,97.2443,VALID,0,VALID,19.0593,VALID,13,VALID,1.75039,
2010-11-02, 03:05:04,VALID,913.276,VALID,0,VALID,97.229,VALID,0,VALID,19.0579,VALID,25,VALID,1.08555,
2010-11-02, 03:06:04,VALID,913.275,VALID,0,VALID,97.229,VALID,0,VALID,19.0579,VALID,180,VALID,0.774219,
2010-11-02, 03:07:04,VALID,913.292,VALID,0,VALID,97.2443,VALID,0,VALID,19.0593,VALID,29,VALID,1.94453,
2010-11-02, 03:08:04,VALID,913.321,VALID,0,VALID,97.2367,VALID,0,VALID,19.0593,VALID,40,VALID,0.424219,
2010-11-02, 03:09:04,VALID,913.238,VALID,0,VALID,97.2367,VALID,0,VALID,19.0983,VALID,357,VALID,1.83828,
2010-11-02, 03:10:04,VALID,913.233,VALID,0,VALID,97.2443,VALID,0,VALID,19.0788,VALID,38,VALID,1.68164,
2010-11-02, 03:11:04,VALID,913.224,VALID,0.2,VALID,97.2443,VALID,0,VALID,19.0189,VALID,11,VALID,1.63086,
2010-11-02, 03:12:04,VALID,913.2,VALID,0,VALID,97.2443,VALID,0,VALID,19.0788,VALID,46,VALID,2.32539,
2010-11-02, 03:13:04,VALID,913.206,VALID,0,VALID,97.2443,VALID,0,VALID,19.0593,VALID,18,VALID,1.52383,
2010-11-02, 03:14:04,VALID,913.172,VALID,0,VALID,97.2443,VALID,0,VALID,19.0384,VALID,11,VALID,1.85156,
2010-11-02, 03:15:04,VALID,913.202,VALID,0,VALID,97.2519,VALID,0,VALID,19.0788,VALID,14,VALID,1.83906,
2010-11-02, 03:16:04,VALID,913.177,VALID,0,VALID,97.2443,VALID,0,VALID,19.0398,VALID,15,VALID,1.35664,
2010-11-02, 03:17:04,VALID,913.156,VALID,0,VALID,97.2519,VALID,0,VALID,19.0384,VALID,323,VALID,2.51602,
2010-11-02, 03:18:04,VALID,913.162,VALID,0,VALID,97.2672,VALID,0,VALID,19.0384,VALID,34,VALID,2.25156,
2010-11-02, 03:19:04,VALID,913.195,VALID,0,VALID,97.2519,VALID,0,VALID,19.0384,VALID,2,VALID,1.46289,
2010-11-02, 03:20:04,VALID,913.18,VALID,0,VALID,97.2748,VALID,0.107441,VALID,19.0579,VALID,25,VALID,2.49141,
2010-11-02, 03:21:04,VALID,913.172,VALID,0,VALID,97.2748,VALID,0,VALID,19.0593,VALID,356,VALID,1.16797,
2010-11-02, 03:22:04,VALID,913.115,VALID,0,VALID,97.2443,VALID,0,VALID,19.0593,VALID,30,VALID,2.7125,
2010-11-02, 03:23:04,VALID,913.133,VALID,0,VALID,97.2443,VALID,0,VALID,19.0983,VALID,324,VALID,1.29219,
2010-11-02, 03:24:04,VALID,913.185,VALID,0,VALID,97.2595,VALID,0,VALID,19.0788,VALID,27,VALID,0.344141,
2010-11-02, 03:25:04,VALID,913.123,VALID,0,VALID,97.2672,VALID,0.107441,VALID,19.0593,VALID,40,VALID,2.78828,
2010-11-02, 03:26:04,VALID,913.139,VALID,0,VALID,97.2595,VALID,0,VALID,19.0398,VALID,35,VALID,2.21211,
2010-11-02, 03:27:04,VALID,913.043,VALID,0,VALID,97.2595,VALID,0,VALID,19.0593,VALID,32,VALID,3.19023,
2010-11-02, 03:28:04,VALID,913.087,VALID,0,VALID,97.2443,VALID,0,VALID,19.0788,VALID,38,VALID,2.09492,
2010-11-02, 03:29:04,VALID,913.109,VALID,0,VALID,97.2672,VALID,0,VALID,19.0579,VALID,37,VALID,0.724609,
2010-11-02, 03:30:04,VALID,913.131,VALID,0,VALID,97.2672,VALID,0,VALID,19.0579,VALID,30,VALID,1.925,
2010-11-02, 03:31:04,VALID,913.085,VALID,0,VALID,97.2672,VALID,0,VALID,19.0788,VALID,34,VALID,3,
2010-11-02, 03:32:04,VALID,913.111,VALID,0,VALID,97.2824,VALID,0,VALID,19.0384,VALID,16,VALID,1.32617,
2010-11-02, 03:33:04,VALID,913.05,VALID,0,VALID,97.2519,VALID,0,VALID,19.0384,VALID,58,VALID,1.90156,
2010-11-02, 03:34:04,VALID,913.041,VALID,0,VALID,97.2824,VALID,0,VALID,19.0579,VALID,268,VALID,0.565234,
2010-11-02, 03:35:04,VALID,913.07,VALID,0,VALID,97.2672,VALID,0.107441,VALID,19.0579,VALID,83,VALID,1.2332,
2010-11-02, 03:36:04,VALID,912.94,VALID,0,VALID,97.2519,VALID,0,VALID,19.0398,VALID,30,VALID,2.44844,
2010-11-02, 03:37:04,VALID,912.948,VALID,0,VALID,97.2672,VALID,0,VALID,19.0593,VALID,18,VALID,1.56562,
2010-11-02, 03:38:04,VALID,912.964,VALID,0,VALID,97.2367,VALID,0,VALID,19.0579,VALID,316,VALID,1.6543,
2010-11-02, 03:39:04,VALID,913.018,VALID,0,VALID,97.2519,VALID,0,VALID,19.0788,VALID,34,VALID,0.975781,
2010-11-02, 03:40:04,VALID,912.971,VALID,0,VALID,97.2367,VALID,0,VALID,19.0788,VALID,43,VALID,2.29922,
2010-11-02, 03:41:04,VALID,912.981,VALID,0.2,VALID,97.2443,VALID,0.107441,VALID,19.0774,VALID,26,VALID,1.26523,
2010-11-02, 03:42:04,VALID,912.981,VALID,0,VALID,97.2443,VALID,0,VALID,19.0579,VALID,37,VALID,2.1875,
2010-11-02, 03:43:04,VALID,913.029,VALID,0,VALID,97.2443,VALID,0,VALID,19.0983,VALID,25,VALID,1.46953,
2010-11-02, 03:44:04,VALID,913.01,VALID,0,VALID,97.229,VALID,0,VALID,19.0788,VALID,21,VALID,1.56719,
2010-11-02, 03:45:04,VALID,912.99,VALID,0,VALID,97.2443,VALID,0,VALID,19.0983,VALID,10,VALID,1.56875,